Regional Weather Roundup
Issued by NWS

Home | Current Version | Previous Version | Text Only | Print | Product List | Glossary Off
Versions: 1 2 3 4 5 6 7 8 9 10 11 12 13 14 15 16 17 18 19 20 21 22 23 24 25 26 27 28 29 30 31 32 33 34 35 36 37 38 39 40 41 42 43 44 45 46 47 48 49 50

928
ASUS45 KSLC 060710
RWRUT

UTAH REGIONAL WEATHER ROUNDUP
NATIONAL WEATHER SERVICE SALT LAKE CITY UT
1200 AM MST TUE DEC 06 2016

UTZ001>011-023>025-060800-

NORTHERN UTAH

CITY           SKY/WX    TMP DP  RH WIND       PRES   REMARKS
BRIGHAM CITY     N/A     18   9  69 CALM      30.01F
HILL AFB       CLEAR     16  -3  43 E14       29.98F WCI   1
LOGAN          CLEAR    N/A N/A N/A NW3       30.02F
OGDEN          CLEAR     16   0  49 S5        29.99S WCI   9
SALT LAKE CITY MOCLDY    26  10  50 CALM      29.99S
TOOELE VALLEY  CLOUDY    25  19  80 CALM      29.99F
WENDOVER       PTCLDY    18   1  49 CALM      29.99F
HEBER CITY     CLOUDY    18   5  57 CALM      29.94F
WEST JORDAN    CLOUDY    25  17  71 CALM      29.98F

$$

UTZ011>015-024>027-060800-

CENTRAL/NORTHEAST UTAH

CITY           SKY/WX    TMP DP  RH WIND       PRES   REMARKS
PROVO AIRPORT  CLOUDY    27  15  61 S5        29.99F WCI  22
MOAB/CANYONLAN CLEAR     30  -1  26 E12       29.92F WCI  20
DELTA          PTCLDY    18   9  68 NE5       29.96S WCI  11
PRICE          CLEAR     23   5  46 SW3       29.90S
RICHFIELD      PTCLDY    16  12  86 CALM      29.97S
ROOSEVELT      CLOUDY    21   0  39 NW5       30.02F WCI  15
VERNAL         CLOUDY    18  -3  39 N3        30.00F

$$

UTZ013>016-019>022-027-060800-

SOUTHERN UTAH

CITY           SKY/WX    TMP DP  RH WIND       PRES   REMARKS
BRYCE CANYON   MOCLDY     9   2  73 W8        29.89F WCI  -3
CEDAR CITY     MOCLDY    21  10  62 W5        29.91S WCI  15
MILFORD        MOCLDY    17   5  59 CALM      29.94S
ST GEORGE      MOSUNNY   43  19  39 CALM      29.92S
HANKSVILLE     CLEAR     27  10  50 NW8       29.97S WCI  18
KANAB          CLOUDY    30  19  64 CALM      29.94F
BLANDING       CLOUDY    29  14  54 NE10      29.95F WCI  19

$$

REGIONAL REPORTS     COLORADO/ARIZONA

CITY           SKY/WX    TMP DP  RH WIND       PRES   REMARKS
CRAIG, CO      CLOUDY    -2  -9  72 CALM      29.99S
GRAND JUNCTION CLEAR     21   6  52 NE5       29.98S WCI  15
RIFLE, CO      CLOUDY    24   3  40 SW6       29.99S WCI  17
MONTROSE, CO   PTCLDY    21  10  62 S10       29.99F WCI  10
CORTEZ, CO     CLOUDY    24  20  84 E6        29.90S WCI  17
COLORADO CITY    N/A     30  25  80 CALM      29.94S
PAGE, AZ       MOCLDY    42  10  27 CALM      29.86F
GRAND CANYON   CLOUDY    29  23  78 CALM      29.96S
KINGMAN, AZ    MOCLDY    44  12  27 S6        29.93S
FLAGSTAFF, AZ  CLOUDY    30  20  66 N7        29.99R WCI  23

$$

REGIONAL REPORTS    NEVADA/IDAHO/WYOMING

CITY           SKY/WX    TMP DP  RH WIND       PRES   REMARKS
LAS VEGAS, NV  MOCLDY    48  19  31 W3        29.89S
ELY, NY        PTCLDY     8   5  87 S9        29.91S WCI  -5
ELKO, NV       CLOUDY    25  11  55 NE3       29.93S
POCATELLO, ID  CLEAR      9   3  77 CALM      29.99F
BURLEY, ID     CLEAR      9   5  84 CALM      29.98F
FORT BRIDGER,    N/A      2 -15  44 CALM      29.93F
EVANSTON, WY   CLOUDY     3 -17  39 S5        29.90F WCI  -6
ROCK SPRINGS,  CLOUDY     2  -8  63 W7        29.93F WCI -11
KEMMERER, WY     N/A     -6 -11  77 NW5       29.89F WCI -17

$$




USA.gov is the U.S. government's official web portal to all federal, state and local government web resources and services.